![]() |
EMODnet Physics ERDDAP
Easier access to scientific data |
log in|
Brought to you by EMODnet Physics |
| Dataset Title: | NDBC - Collection of dew point temperature (DEWT) TimeSeries - IN SITU MultiPointTimeSeriesObservation
|
| Institution: | NDBC (Dataset ID: TS_DEWT_NDBC) |
| Information: | Summary
| License
| FGDC
| ISO 19115
| Metadata
| Background
| Subset
| Data Access Form
| Make a graph
|
| Name | Last modified | Size | Description | |
|---|---|---|---|---|
| Parent Directory | - | - | ||
| SVNM4_TS_DEWT_012006.nc | 27-Oct-2024 23:11 | 439643 | ||
| SVNM4_TS_DEWT_012007.nc | 27-Oct-2024 23:11 | 440050 | ||
| SVNM4_TS_DEWT_012008.nc | 27-Oct-2024 23:11 | 440228 | ||
| SVNM4_TS_DEWT_012010.nc | 27-Oct-2024 23:11 | 440233 | ||
| SVNM4_TS_DEWT_012012.nc | 27-Oct-2024 23:11 | 439384 | ||
| SVNM4_TS_DEWT_012013.nc | 27-Oct-2024 23:11 | 440235 | ||
| SVNM4_TS_DEWT_012014.nc | 27-Oct-2024 23:11 | 439958 | ||
| SVNM4_TS_DEWT_012015.nc | 27-Oct-2024 23:11 | 439258 | ||
| SVNM4_TS_DEWT_012016.nc | 27-Oct-2024 23:11 | 440179 | ||
| SVNM4_TS_DEWT_012018.nc | 27-Oct-2024 23:11 | 440071 | ||
| SVNM4_TS_DEWT_012019.nc | 27-Oct-2024 23:11 | 440148 | ||
| SVNM4_TS_DEWT_012020.nc | 27-Oct-2024 23:11 | 440237 | ||
| SVNM4_TS_DEWT_012021.nc | 27-Oct-2024 23:11 | 439972 | ||
| SVNM4_TS_DEWT_012022.nc | 27-Oct-2024 23:11 | 439489 | ||
| SVNM4_TS_DEWT_012023.nc | 27-Oct-2024 23:12 | 440267 | ||
| SVNM4_TS_DEWT_012024.nc | 27-Oct-2024 23:12 | 587030 | ||
| SVNM4_TS_DEWT_022005.nc | 27-Oct-2024 23:12 | 435693 | ||
| SVNM4_TS_DEWT_022006.nc | 27-Oct-2024 23:12 | 587320 | ||
| SVNM4_TS_DEWT_022007.nc | 27-Oct-2024 23:12 | 439886 | ||
| SVNM4_TS_DEWT_022008.nc | 27-Oct-2024 23:12 | 587340 | ||
| SVNM4_TS_DEWT_022010.nc | 27-Oct-2024 23:12 | 587207 | ||
| SVNM4_TS_DEWT_022011.nc | 27-Oct-2024 23:12 | 587147 | ||
| SVNM4_TS_DEWT_022012.nc | 27-Oct-2024 23:12 | 587121 | ||
| SVNM4_TS_DEWT_022013.nc | 27-Oct-2024 23:12 | 587240 | ||
| SVNM4_TS_DEWT_022015.nc | 27-Oct-2024 23:12 | 587304 | ||
| SVNM4_TS_DEWT_022016.nc | 27-Oct-2024 23:12 | 587316 | ||
| SVNM4_TS_DEWT_022018.nc | 27-Oct-2024 23:12 | 439413 | ||
| SVNM4_TS_DEWT_022019.nc | 27-Oct-2024 23:12 | 438653 | ||
| SVNM4_TS_DEWT_022020.nc | 27-Oct-2024 23:12 | 440277 | ||
| SVNM4_TS_DEWT_022021.nc | 27-Oct-2024 23:12 | 437550 | ||
| SVNM4_TS_DEWT_022022.nc | 27-Oct-2024 23:13 | 421926 | ||
| SVNM4_TS_DEWT_022023.nc | 27-Oct-2024 23:13 | 440286 | ||
| SVNM4_TS_DEWT_022024.nc | 16-Sep-2024 16:51 | 439878 | ||
| SVNM4_TS_DEWT_032005.nc | 27-Oct-2024 23:13 | 439290 | ||
| SVNM4_TS_DEWT_032006.nc | 27-Oct-2024 23:13 | 437674 | ||
| SVNM4_TS_DEWT_032007.nc | 27-Oct-2024 23:13 | 587072 | ||
| SVNM4_TS_DEWT_032008.nc | 27-Oct-2024 23:13 | 587129 | ||
| SVNM4_TS_DEWT_032010.nc | 27-Oct-2024 23:13 | 587228 | ||
| SVNM4_TS_DEWT_032011.nc | 27-Oct-2024 23:13 | 587306 | ||
| SVNM4_TS_DEWT_032012.nc | 27-Oct-2024 23:13 | 587291 | ||
| SVNM4_TS_DEWT_032013.nc | 27-Oct-2024 23:13 | 439512 | ||
| SVNM4_TS_DEWT_032016.nc | 27-Oct-2024 23:13 | 438105 | ||
| SVNM4_TS_DEWT_032017.nc | 27-Oct-2024 23:13 | 439606 | ||
| SVNM4_TS_DEWT_032018.nc | 27-Oct-2024 23:13 | 440051 | ||
| SVNM4_TS_DEWT_032019.nc | 27-Oct-2024 23:13 | 440251 | ||
| SVNM4_TS_DEWT_032020.nc | 27-Oct-2024 23:13 | 440003 | ||
| SVNM4_TS_DEWT_032021.nc | 27-Oct-2024 23:14 | 437768 | ||
| SVNM4_TS_DEWT_032022.nc | 27-Oct-2024 23:14 | 440050 | ||
| SVNM4_TS_DEWT_032023.nc | 27-Oct-2024 23:14 | 440175 | ||
| SVNM4_TS_DEWT_042005.nc | 27-Oct-2024 23:14 | 440117 | ||
| SVNM4_TS_DEWT_042006.nc | 27-Oct-2024 23:14 | 440212 | ||
| SVNM4_TS_DEWT_042007.nc | 27-Oct-2024 23:14 | 440225 | ||
| SVNM4_TS_DEWT_042008.nc | 27-Oct-2024 23:14 | 440238 | ||
| SVNM4_TS_DEWT_042010.nc | 27-Oct-2024 23:14 | 440341 | ||
| SVNM4_TS_DEWT_042011.nc | 27-Oct-2024 23:14 | 440088 | ||
| SVNM4_TS_DEWT_042012.nc | 27-Oct-2024 23:14 | 439240 | ||
| SVNM4_TS_DEWT_042013.nc | 27-Oct-2024 23:14 | 440398 | ||
| SVNM4_TS_DEWT_042014.nc | 27-Oct-2024 23:14 | 587305 | ||
| SVNM4_TS_DEWT_042015.nc | 27-Oct-2024 23:14 | 587292 | ||
| SVNM4_TS_DEWT_042016.nc | 27-Oct-2024 23:14 | 587169 | ||
| SVNM4_TS_DEWT_042017.nc | 27-Oct-2024 23:14 | 437922 | ||
| SVNM4_TS_DEWT_042018.nc | 27-Oct-2024 23:14 | 587271 | ||
| SVNM4_TS_DEWT_042019.nc | 27-Oct-2024 23:14 | 587221 | ||
| SVNM4_TS_DEWT_042020.nc | 27-Oct-2024 23:15 | 587239 | ||
| SVNM4_TS_DEWT_042021.nc | 27-Oct-2024 23:15 | 587198 | ||
| SVNM4_TS_DEWT_042022.nc | 27-Oct-2024 23:15 | 587278 | ||
| SVNM4_TS_DEWT_042023.nc | 27-Oct-2024 23:15 | 587330 | ||
| SVNM4_TS_DEWT_052005.nc | 27-Oct-2024 23:15 | 587278 | ||
| SVNM4_TS_DEWT_052006.nc | 27-Oct-2024 23:15 | 439130 | ||
| SVNM4_TS_DEWT_052007.nc | 27-Oct-2024 23:15 | 439261 | ||
| SVNM4_TS_DEWT_052008.nc | 27-Oct-2024 23:15 | 440054 | ||
| SVNM4_TS_DEWT_052009.nc | 27-Oct-2024 23:15 | 437664 | ||
| SVNM4_TS_DEWT_052010.nc | 27-Oct-2024 23:15 | 440197 | ||
| SVNM4_TS_DEWT_052011.nc | 27-Oct-2024 23:15 | 439710 | ||
| SVNM4_TS_DEWT_052012.nc | 27-Oct-2024 23:15 | 439765 | ||
| SVNM4_TS_DEWT_052013.nc | 27-Oct-2024 23:15 | 440174 | ||
| SVNM4_TS_DEWT_052014.nc | 27-Oct-2024 23:15 | 440075 | ||
| SVNM4_TS_DEWT_052015.nc | 27-Oct-2024 23:15 | 440174 | ||
| SVNM4_TS_DEWT_052016.nc | 27-Oct-2024 23:15 | 439161 | ||
| SVNM4_TS_DEWT_052017.nc | 27-Oct-2024 23:15 | 440236 | ||
| SVNM4_TS_DEWT_052018.nc | 27-Oct-2024 23:16 | 440254 | ||
| SVNM4_TS_DEWT_052019.nc | 27-Oct-2024 23:16 | 440246 | ||
| SVNM4_TS_DEWT_052020.nc | 27-Oct-2024 23:16 | 438777 | ||
| SVNM4_TS_DEWT_052021.nc | 27-Oct-2024 23:16 | 440042 | ||
| SVNM4_TS_DEWT_052022.nc | 27-Oct-2024 23:16 | 587168 | ||
| SVNM4_TS_DEWT_052023.nc | 27-Oct-2024 23:16 | 440195 | ||
| SVNM4_TS_DEWT_062005.nc | 27-Oct-2024 23:16 | 587281 | ||
| SVNM4_TS_DEWT_062006.nc | 27-Oct-2024 23:16 | 437395 | ||
| SVNM4_TS_DEWT_062007.nc | 27-Oct-2024 23:16 | 587318 | ||
| SVNM4_TS_DEWT_062008.nc | 27-Oct-2024 23:16 | 440035 | ||
| SVNM4_TS_DEWT_062009.nc | 27-Oct-2024 23:16 | 440370 | ||
| SVNM4_TS_DEWT_062010.nc | 27-Oct-2024 23:16 | 587202 | ||
| SVNM4_TS_DEWT_062011.nc | 27-Oct-2024 23:16 | 587145 | ||
| SVNM4_TS_DEWT_062012.nc | 27-Oct-2024 23:16 | 587325 | ||
| SVNM4_TS_DEWT_062013.nc | 27-Oct-2024 23:16 | 587325 | ||
| SVNM4_TS_DEWT_062014.nc | 27-Oct-2024 23:16 | 587294 | ||
| SVNM4_TS_DEWT_062015.nc | 27-Oct-2024 23:16 | 587907 | ||
| SVNM4_TS_DEWT_062016.nc | 27-Oct-2024 23:17 | 424826 | ||
| SVNM4_TS_DEWT_062017.nc | 27-Oct-2024 23:17 | 421130 | ||
| SVNM4_TS_DEWT_062018.nc | 27-Oct-2024 23:17 | 439949 | ||
| SVNM4_TS_DEWT_062019.nc | 27-Oct-2024 23:17 | 588035 | ||
| SVNM4_TS_DEWT_062020.nc | 27-Oct-2024 23:17 | 439688 | ||
| SVNM4_TS_DEWT_062021.nc | 27-Oct-2024 23:17 | 440360 | ||
| SVNM4_TS_DEWT_062022.nc | 27-Oct-2024 23:17 | 440127 | ||
| SVNM4_TS_DEWT_062023.nc | 27-Oct-2024 23:17 | 439649 | ||
| SVNM4_TS_DEWT_072005.nc | 27-Oct-2024 23:17 | 587798 | ||
| SVNM4_TS_DEWT_072006.nc | 27-Oct-2024 23:17 | 439387 | ||
| SVNM4_TS_DEWT_072007.nc | 27-Oct-2024 23:17 | 439376 | ||
| SVNM4_TS_DEWT_072008.nc | 27-Oct-2024 23:17 | 439973 | ||
| SVNM4_TS_DEWT_072009.nc | 27-Oct-2024 23:17 | 429608 | ||
| SVNM4_TS_DEWT_072010.nc | 27-Oct-2024 23:17 | 431691 | ||
| SVNM4_TS_DEWT_072011.nc | 27-Oct-2024 23:17 | 438169 | ||
| SVNM4_TS_DEWT_072012.nc | 27-Oct-2024 23:17 | 587186 | ||
| SVNM4_TS_DEWT_072013.nc | 27-Oct-2024 23:17 | 587100 | ||
| SVNM4_TS_DEWT_072014.nc | 27-Oct-2024 23:17 | 586980 | ||
| SVNM4_TS_DEWT_072016.nc | 27-Oct-2024 23:18 | 587173 | ||
| SVNM4_TS_DEWT_072017.nc | 27-Oct-2024 23:18 | 587298 | ||
| SVNM4_TS_DEWT_072018.nc | 27-Oct-2024 23:18 | 587215 | ||
| SVNM4_TS_DEWT_072019.nc | 27-Oct-2024 23:18 | 438999 | ||
| SVNM4_TS_DEWT_072020.nc | 27-Oct-2024 23:18 | 429625 | ||
| SVNM4_TS_DEWT_072021.nc | 27-Oct-2024 23:18 | 438660 | ||
| SVNM4_TS_DEWT_072022.nc | 27-Oct-2024 23:18 | 438706 | ||
| SVNM4_TS_DEWT_072023.nc | 27-Oct-2024 23:18 | 439010 | ||
| SVNM4_TS_DEWT_082005.nc | 27-Oct-2024 23:18 | 438749 | ||
| SVNM4_TS_DEWT_082006.nc | 27-Oct-2024 23:18 | 438725 | ||
| SVNM4_TS_DEWT_082007.nc | 27-Oct-2024 23:18 | 438849 | ||
| SVNM4_TS_DEWT_082008.nc | 27-Oct-2024 23:18 | 439494 | ||
| SVNM4_TS_DEWT_082009.nc | 27-Oct-2024 23:18 | 438729 | ||
| SVNM4_TS_DEWT_082010.nc | 27-Oct-2024 23:18 | 438876 | ||
| SVNM4_TS_DEWT_082011.nc | 27-Oct-2024 23:18 | 438885 | ||
| SVNM4_TS_DEWT_082012.nc | 27-Oct-2024 23:18 | 440356 | ||
| SVNM4_TS_DEWT_082013.nc | 27-Oct-2024 23:19 | 440312 | ||
| SVNM4_TS_DEWT_082014.nc | 27-Oct-2024 23:19 | 440052 | ||
| SVNM4_TS_DEWT_082015.nc | 27-Oct-2024 23:19 | 587167 | ||
| SVNM4_TS_DEWT_082016.nc | 27-Oct-2024 23:19 | 439650 | ||
| SVNM4_TS_DEWT_082017.nc | 27-Oct-2024 23:19 | 587022 | ||
| SVNM4_TS_DEWT_082018.nc | 27-Oct-2024 23:19 | 587258 | ||
| SVNM4_TS_DEWT_082019.nc | 27-Oct-2024 23:19 | 586923 | ||
| SVNM4_TS_DEWT_082020.nc | 27-Oct-2024 23:19 | 587271 | ||
| SVNM4_TS_DEWT_082021.nc | 27-Oct-2024 23:19 | 434999 | ||
| SVNM4_TS_DEWT_082022.nc | 27-Oct-2024 23:19 | 587274 | ||
| SVNM4_TS_DEWT_082023.nc | 27-Oct-2024 23:19 | 440118 | ||
| SVNM4_TS_DEWT_092005.nc | 27-Oct-2024 23:19 | 433395 | ||
| SVNM4_TS_DEWT_092006.nc | 27-Oct-2024 23:19 | 439679 | ||
| SVNM4_TS_DEWT_092007.nc | 27-Oct-2024 23:19 | 440045 | ||
| SVNM4_TS_DEWT_092008.nc | 27-Oct-2024 23:19 | 439402 | ||
| SVNM4_TS_DEWT_092009.nc | 27-Oct-2024 23:19 | 439947 | ||
| SVNM4_TS_DEWT_092010.nc | 27-Oct-2024 23:19 | 439880 | ||
| SVNM4_TS_DEWT_092011.nc | 27-Oct-2024 23:19 | 440008 | ||
| SVNM4_TS_DEWT_092012.nc | 27-Oct-2024 23:20 | 440184 | ||
| SVNM4_TS_DEWT_092013.nc | 27-Oct-2024 23:20 | 439952 | ||
| SVNM4_TS_DEWT_092014.nc | 27-Oct-2024 23:20 | 440205 | ||
| SVNM4_TS_DEWT_092015.nc | 27-Oct-2024 23:20 | 440163 | ||
| SVNM4_TS_DEWT_092016.nc | 27-Oct-2024 23:20 | 440238 | ||
| SVNM4_TS_DEWT_092017.nc | 27-Oct-2024 23:20 | 439813 | ||
| SVNM4_TS_DEWT_092018.nc | 27-Oct-2024 23:20 | 440187 | ||
| SVNM4_TS_DEWT_092019.nc | 27-Oct-2024 23:20 | 439627 | ||
| SVNM4_TS_DEWT_092020.nc | 27-Oct-2024 23:20 | 587064 | ||
| SVNM4_TS_DEWT_092021.nc | 27-Oct-2024 23:20 | 587156 | ||
| SVNM4_TS_DEWT_092022.nc | 27-Oct-2024 23:20 | 587191 | ||
| SVNM4_TS_DEWT_092023.nc | 27-Oct-2024 23:20 | 440199 | ||
| SVNM4_TS_DEWT_102005.nc | 27-Oct-2024 23:20 | 440130 | ||
| SVNM4_TS_DEWT_102006.nc | 27-Oct-2024 23:20 | 587277 | ||
| SVNM4_TS_DEWT_102007.nc | 27-Oct-2024 23:20 | 587244 | ||
| SVNM4_TS_DEWT_102008.nc | 27-Oct-2024 23:20 | 587293 | ||
| SVNM4_TS_DEWT_102009.nc | 27-Oct-2024 23:20 | 587199 | ||
| SVNM4_TS_DEWT_102010.nc | 27-Oct-2024 23:20 | 587323 | ||
| SVNM4_TS_DEWT_102011.nc | 27-Oct-2024 23:21 | 587183 | ||
| SVNM4_TS_DEWT_102012.nc | 27-Oct-2024 23:21 | 439947 | ||
| SVNM4_TS_DEWT_102013.nc | 27-Oct-2024 23:21 | 439751 | ||
| SVNM4_TS_DEWT_102014.nc | 27-Oct-2024 23:21 | 439995 | ||
| SVNM4_TS_DEWT_102015.nc | 27-Oct-2024 23:21 | 440165 | ||
| SVNM4_TS_DEWT_102017.nc | 27-Oct-2024 23:21 | 440089 | ||
| SVNM4_TS_DEWT_102018.nc | 27-Oct-2024 23:21 | 439110 | ||
| SVNM4_TS_DEWT_102019.nc | 27-Oct-2024 23:21 | 439858 | ||
| SVNM4_TS_DEWT_102020.nc | 27-Oct-2024 23:21 | 440255 | ||
| SVNM4_TS_DEWT_102021.nc | 27-Oct-2024 23:21 | 439959 | ||
| SVNM4_TS_DEWT_102022.nc | 27-Oct-2024 23:21 | 440159 | ||
| SVNM4_TS_DEWT_102023.nc | 27-Oct-2024 23:21 | 440094 | ||
| SVNM4_TS_DEWT_112005.nc | 27-Oct-2024 23:21 | 440160 | ||
| SVNM4_TS_DEWT_112006.nc | 27-Oct-2024 23:21 | 440242 | ||
| SVNM4_TS_DEWT_112007.nc | 27-Oct-2024 23:22 | 586948 | ||
| SVNM4_TS_DEWT_112008.nc | 27-Oct-2024 23:22 | 440346 | ||
| SVNM4_TS_DEWT_112009.nc | 27-Oct-2024 23:22 | 587040 | ||
| SVNM4_TS_DEWT_112011.nc | 27-Oct-2024 23:22 | 587205 | ||
| SVNM4_TS_DEWT_112012.nc | 27-Oct-2024 23:22 | 439810 | ||
| SVNM4_TS_DEWT_112013.nc | 27-Oct-2024 23:22 | 437257 | ||
| SVNM4_TS_DEWT_112014.nc | 27-Oct-2024 23:22 | 587294 | ||
| SVNM4_TS_DEWT_112015.nc | 27-Oct-2024 23:22 | 587217 | ||
| SVNM4_TS_DEWT_112017.nc | 27-Oct-2024 23:22 | 587217 | ||
| SVNM4_TS_DEWT_112018.nc | 27-Oct-2024 23:22 | 587279 | ||
| SVNM4_TS_DEWT_112019.nc | 27-Oct-2024 23:22 | 587295 | ||
| SVNM4_TS_DEWT_112020.nc | 27-Oct-2024 23:22 | 587257 | ||
| SVNM4_TS_DEWT_112021.nc | 27-Oct-2024 23:22 | 439747 | ||
| SVNM4_TS_DEWT_112022.nc | 27-Oct-2024 23:22 | 440233 | ||
| SVNM4_TS_DEWT_112023.nc | 27-Oct-2024 23:22 | 587098 | ||
| SVNM4_TS_DEWT_122005.nc | 27-Oct-2024 23:22 | 586892 | ||
| SVNM4_TS_DEWT_122006.nc | 27-Oct-2024 23:23 | 586897 | ||
| SVNM4_TS_DEWT_122007.nc | 27-Oct-2024 23:23 | 439764 | ||
| SVNM4_TS_DEWT_122009.nc | 27-Oct-2024 23:23 | 437184 | ||
| SVNM4_TS_DEWT_122010.nc | 27-Oct-2024 23:23 | 587233 | ||
| SVNM4_TS_DEWT_122011.nc | 27-Oct-2024 23:23 | 587102 | ||
| SVNM4_TS_DEWT_122012.nc | 27-Oct-2024 23:23 | 433866 | ||
| SVNM4_TS_DEWT_122013.nc | 27-Oct-2024 23:23 | 587287 | ||
| SVNM4_TS_DEWT_122014.nc | 27-Oct-2024 23:23 | 431573 | ||
| SVNM4_TS_DEWT_122015.nc | 27-Oct-2024 23:23 | 587266 | ||
| SVNM4_TS_DEWT_122017.nc | 27-Oct-2024 23:23 | 439089 | ||
| SVNM4_TS_DEWT_122018.nc | 27-Oct-2024 23:23 | 439623 | ||
| SVNM4_TS_DEWT_122019.nc | 27-Oct-2024 23:23 | 440020 | ||
| SVNM4_TS_DEWT_122020.nc | 27-Oct-2024 23:23 | 439523 | ||
| SVNM4_TS_DEWT_122021.nc | 27-Oct-2024 23:23 | 440030 | ||
| SVNM4_TS_DEWT_122022.nc | 27-Oct-2024 23:24 | 437668 | ||
| SVNM4_TS_DEWT_122023.nc | 27-Oct-2024 23:24 | 439836 | ||